CW7204 Weather Reports


time (UTC)temp
C
wind
direction
speed
KPH
gust
KPH
rain 1hr
cm
rain 24hr
cm
rain mn
cm
humidity
%
barometer
mb
20260505140413 13 337 6.4 12.9 0.00 0.00 0.00 67 1011.3
20260505124414 13 67 11.3 16.1 0.00 0.00 0.00 68 1011.5
20260505123410 13 67 6.4 16.1 0.00 0.00 0.00 69 1011.5
20260505120414 13 22 4.8 16.1 0.00 0.00 0.00 67 1011.6
20260505115414 13 337 1.6 11.3 0.00 0.00 0.00 67 1011.5
20260505114413 13 67 6.4 16.1 0.00 0.00 0.00 67 1011.4
20260505113414 13 45 3.2 12.9 0.00 0.00 0.00 68 1011.4
20260505112413 13 67 3.2 14.5 0.00 0.00 0.00 68 1011.5
20260505111413 13 315 6.4 16.1 0.00 0.00 0.00 68 1011.6
20260505110412 13 67 6.4 16.1 0.00 0.00 0.00 69 1011.6
20260505101410 13 67 11.3 19.3 0.00 0.00 0.00 68 1011.9
20260505100410 13 45 4.8 12.9 0.00 0.00 0.00 69 1011.9
20260505095413 13 67 1.6 16.1 0.00 0.00 0.00 70 1011.8
20260505094409 13 360 3.2 11.3 0.00 0.00 0.00 71 1011.9
20260505093414 13 90 1.6 14.5 0.00 0.00 0.00 70 1011.9
20260505092414 13 22 0.0 14.5 0.00 0.00 0.00 67 1012.1
20260505091414 13 360 3.2 11.3 0.00 0.00 0.00 69 1012.0
20260505090413 12 360 0.0 11.3 0.00 0.00 0.00 73 1012.0
20260505085413 12 337 3.2 12.9 0.00 0.00 0.00 73 1011.9
20260505084412 13 22 3.2 12.9 0.00 0.00 0.00 72 1012.1
20260505083412 13 337 3.2 20.9 0.00 0.00 0.00 69 1012.1
20260505082412 12 337 3.2 16.1 0.00 0.00 0.00 74 1012.0
20260505081411 11 67 1.6 14.5 0.00 0.00 0.00 79 1012.1
20260505080411 11 337 4.8 11.3 0.00 0.00 0.00 75 1012.1
20260505075411 12 360 1.6 6.4 0.00 0.00 0.00 78 1012.1
20260505074410 11 360 3.2 12.9 0.00 0.00 0.00 79 1012.0
20260505073410 10 315 4.8 12.9 0.00 0.00 0.00 81 1012.0
20260505072410 10 337 3.2 12.9 0.00 0.00 0.00 82 1012.1
20260505070414 11 22 3.2 14.5 0.00 0.00 0.00 81 1012.1
20260505065414 10 360 1.6 17.7 0.00 0.00 0.00 82 1012.1
20260505064413 10 337 3.2 12.9 0.00 0.00 0.00 85 1012.2
20260505063416 8 360 0.0 6.4 0.00 0.00 0.00 88 1012.2
20260505062413 8 337 0.0 11.3 0.00 0.00 0.00 88 1012.2
20260505061415 8 360 0.0 6.4 0.00 0.00 0.00 89 1012.2
20260505060412 8 22 0.0 3.2 0.00 0.00 0.00 89 1012.2
20260505054413 7 337 3.2 9.7 0.00 0.00 0.00 90 1012.2
20260505052411 7 337 3.2 6.4 0.00 0.00 0.00 92 1012.2
20260505051410 7 337 6.4 11.3 0.00 0.00 0.00 92 1012.2
20260505050410 7 337 3.2 9.7 0.00 0.00 0.00 92 1012.2
20260505041413 6 337 1.6 6.4 0.00 0.00 0.00 92 1012.2
20260505040413 6 337 1.6 6.4 0.00 0.00 0.00 92 1012.2
20260505035413 6 337 3.2 6.4 0.00 0.00 0.00 92 1012.2
20260505034412 6 337 3.2 6.4 0.00 0.00 0.00 92 1012.2
20260505033412 6 0 0.0 3.2 0.00 0.00 0.00 92 1012.2
20260505032412 6 337 1.6 6.4 0.00 0.00 0.00 91 1012.2
20260505031412 6 337 1.6 3.2 0.00 0.00 0.00 91 1012.3
20260505030411 6 337 0.0 4.8 0.00 0.00 0.00 91 1012.3
20260505025411 6 337 1.6 3.2 0.00 0.00 0.00 90 1012.5
20260505024411 6 337 3.2 3.2 0.00 0.00 0.00 90 1012.5
20260505022410 7 337 0.0 3.2 0.00 0.00 0.00 89 1012.5
20260505021410 7 337 1.6 6.4 0.00 0.00 0.00 88 1012.4
20260505020409 7 337 0.0 9.7 0.00 0.00 0.00 87 1012.4
20260505015414 7 337 4.8 9.7 0.00 0.00 0.00 87 1012.5
20260505014414 7 337 6.4 12.9 0.00 0.00 0.00 86 1012.7
20260505013416 7 337 3.2 9.7 0.00 0.00 0.00 86 1012.7
20260505012413 8 337 1.6 3.2 0.00 0.00 0.00 86 1012.7
20260505011412 8 337 0.0 3.2 0.00 0.00 0.00 86 1012.7
20260505010412 8 337 0.0 3.2 0.00 0.00 0.00 86 1012.7
20260505005415 8 337 1.6 6.4 0.00 0.00 0.00 85 1012.7
20260505004412 8 337 0.0 9.7 0.00 0.00 0.00 85 1012.7
20260505003414 8 337 1.6 9.7 0.00 0.00 0.00 85 1012.7
20260505002411 8 360 1.6 6.4 0.00 0.00 0.00 85 1012.8
20260505000410 8 337 9.7 11.3 0.00 0.00 0.00 85 1012.9
20260504235410 8 360 1.6 11.3 0.00 0.00 0.00 85 1013.0
20260504233417 8 337 3.2 9.7 0.00 0.00 0.00 85 1013.0
20260504232414 8 315 4.8 9.7 0.00 0.00 0.00 86 1013.1
20260504231414 8 337 1.6 9.7 0.00 0.00 0.00 86 1013.2
20260504230413 8 337 0.0 6.4 0.00 0.00 0.00 86 1013.2
20260504225413 8 337 1.6 3.2 0.00 0.00 0.00 85 1013.2
20260504224412 8 292 3.2 9.7 0.00 0.00 0.00 85 1013.2
20260504223412 8 337 4.8 11.3 0.00 0.00 0.00 85 1013.2
20260504221412 8 337 1.6 9.7 0.00 0.00 0.00 84 1013.3
20260504215411 9 337 3.2 6.4 0.00 0.00 0.00 83 1013.6
20260504214411 9 315 4.8 9.7 0.00 0.00 0.00 82 1013.4
20260504213410 10 315 1.6 9.7 0.00 0.00 0.00 82 1013.4
20260504212410 10 315 3.2 9.7 0.00 0.00 0.00 81 1013.4
20260504211410 10 315 3.2 9.7 0.00 0.00 0.00 81 1013.4
20260504210414 10 292 0.0 9.7 0.00 0.00 0.00 82 1013.4
20260504205414 10 315 3.2 9.7 0.00 0.03 0.00 81 1013.3
20260504204414 10 315 4.8 11.3 0.00 0.03 0.00 81 1013.3
20260504203413 10 292 1.6 6.4 0.00 0.03 0.00 81 1013.3
20260504202413 11 315 4.8 9.7 0.00 0.03 0.00 81 1013.2
20260504201412 11 315 3.2 6.4 0.00 0.03 0.00 81 1013.2
20260504200412 11 315 1.6 3.2 0.00 0.03 0.00 81 1013.2
20260504195412 11 315 1.6 3.2 0.00 0.15 0.00 82 1013.2
20260504194411 11 0 0.0 9.7 0.00 0.15 0.00 80 1013.1
20260504193414 11 315 1.6 4.8 0.00 0.15 0.00 80 1013.1
20260504192411 12 315 3.2 6.4 0.00 0.15 0.00 78 1013.1
20260504191411 12 292 0.0 3.2 0.00 0.15 0.00 78 1013.0
20260504190410 12 292 1.6 6.4 0.00 0.15 0.00 76 1013.0
20260504185410 12 292 3.2 9.7 0.00 0.15 0.00 76 1012.9
20260504184409 13 315 4.8 9.7 0.00 0.15 0.00 76 1012.8
20260504183412 13 315 3.2 11.3 0.00 0.15 0.00 76 1012.8
20260504182414 13 292 4.8 12.9 0.00 0.15 0.00 75 1012.7
20260504181414 13 315 1.6 9.7 0.00 0.15 0.00 75 1012.7
20260504180413 14 270 4.8 11.3 0.00 0.15 0.00 76 1012.7
20260504175413 14 315 9.7 12.9 0.00 0.15 0.00 76 1012.7
20260504174412 13 292 1.6 6.4 0.00 0.15 0.00 76 1012.7
20260504173412 14 315 4.8 11.3 0.00 0.15 0.00 75 1012.7
20260504172412 15 292 1.6 9.7 0.00 0.15 0.00 74 1012.7
20260504171415 15 292 4.8 12.9 0.00 0.15 0.00 75 1012.7
20260504170411 15 0 0.0 9.7 0.00 0.15 0.00 75 1012.7
20260504160409 15 315 4.8 12.9 0.00 0.15 0.00 72 1012.7
20260504150412 16 292 6.4 16.1 0.00 0.15 0.00 69 1012.9